Zurück zum Katalog

DELTA 1 DEB

AktivSSO
NORAD 37636·DEBRIS·🇺🇸 United States

Gestartet Mar 5, 1978 von Vandenberg Space Force Base

Loading…

Nächste Überflüge (nächste 24 Stunden)

TLE

AlterndSource: Space-Track

Epoche: Sep 9, 2026, 16:59 UTC

1 37636U 78026HX  26252.70781081  .00000430  00000-0  29625-3 0  9991
2 37636  98.9478 200.3908 0058011 134.0858 226.5104 14.03784526769820

Verfolge DELTA 1 DEB in Echtzeit mit AllMySat

Download on the App Store